Regional Weather Roundup
Issued by NWS

Home | Current Version | Previous Version | Text Only | Print | Product List | Glossary Off
Versions: 1 2 3 4 5 6 7 8 9 10 11 12 13 14 15 16 17 18 19 20 21 22 23 24 25 26 27 28 29 30 31 32 33 34 35 36 37 38 39 40 41 42 43 44 45 46 47 48 49 50

000
ASUS43 KDTX 290610
RWRMI
MICHIGAN HOURLY REGIONAL WEATHER ROUNDUP
NATIONAL WEATHER SERVICE DETROIT/PONTIAC MI
200 AM EDT SUN MAR 29 2015

NOTE: "FAIR" INDICATES FEW OR NO CLOUDS BELOW 12,000 FEET WITH NO
SIGNIFICANT WEATHER AND/OR OBSTRUCTION TO VISIBILITY.

MIZ047>049-052>055-059>063-066>070-074>076-081>083-290700-
SOUTHEAST LOWER MICHIGAN

CITY           SKY/WX    TMP DP  RH WIND       PRES   REMARKS
ADRIAN         CLEAR     22  15  75 W3        30.30F
6HR MIN TEMP:  21; 6HR MAX TEMP:  33;

ALMA           CLEAR     23  13  65 S5        30.26S
ANN ARBOR      CLEAR     15  12  88 W3        30.28F
BAD AXE        CLEAR     26  10  50 SW9       30.24S
DETROIT CITY   CLEAR     26  16  65 S3        30.29F
6HR MIN TEMP:  25; 6HR MAX TEMP:  32;

DETROIT        CLEAR     24  19  81 CALM      30.30F
6HR MIN TEMP:  24; 6HR MAX TEMP:  32;

FLINT          CLEAR     25   9  50 SW5       30.27F
6HR MIN TEMP:  22; 6HR MAX TEMP:  32;

GROSSE ILE     CLEAR     25  21  86 CALM      30.29F
HILLSDALE      CLEAR     20  11  67 CALM      30.27S
6HR MIN TEMP:  20; 6HR MAX TEMP:  32;

HOWELL         CLEAR     21  12  66 SW3       30.26F
6HR MIN TEMP:  21; 6HR MAX TEMP:  31;


CITY           SKY/WX    TMP DP  RH WIND       PRES   REMARKS
JACKSON        CLEAR     19  11  70 SW3       30.27F
6HR MIN TEMP:  19; 6HR MAX TEMP:  31;

LAMBERTVILLE   CLEAR     23  16  74 CALM      30.31F
LANSING        CLEAR     22  11  62 S5        30.28F
6HR MIN TEMP:  22; 6HR MAX TEMP:  33;

LAPEER         NOT AVBL
MASON          CLEAR     22  16  78 S3        30.27F
MONROE         CLEAR     21  19  93 CALM      30.29F
MT. CLEMENS    CLEAR     20  15  80 S6        30.25F
6HR MIN TEMP:  19; 6HR MAX TEMP:  28;

PONTIAC        CLEAR     21  12  68 CALM      30.25F
6HR MIN TEMP:  20; 6HR MAX TEMP:  30;

PORT HOPE        N/A     28  11  48 VRB7      30.21F
6HR MIN TEMP:  24; 6HR MAX TEMP:  28;

PORT HURON     CLEAR     19  18  93 S3        30.27F
TRI CITIES     CLEAR     25  15  66 SW6       30.26F
6HR MIN TEMP:  25; 6HR MAX TEMP:  33;

YPSILANTI      CLEAR     23  14  68 S3        30.29F
6HR MIN TEMP:  22; 6HR MAX TEMP:  34;

$$
MIZ043>046-050>051-056>058-064>065-071>073-077>080-290700-
SOUTHWEST LOWER MICHIGAN

CITY           SKY/WX    TMP DP  RH WIND       PRES   REMARKS
BATTLE CREEK   CLEAR     22  11  62 S3        30.28S
6HR MIN TEMP:  20; 6HR MAX TEMP:  33;

BENTON HARBOR  CLEAR     19  11  70 CALM      30.28F
6HR MIN TEMP:  14; 6HR MAX TEMP:  25;

BIG RAPIDS     CLEAR     22  11  63 CALM      30.21F
6HR MIN TEMP:  20; 6HR MAX TEMP:  32;

COLDWATER      CLEAR     19  14  82 CALM      30.28S
6HR MIN TEMP:  19; 6HR MAX TEMP:  31;

HOLLAND        CLEAR     21  11  65 S6        30.27F
6HR MIN TEMP:  20; 6HR MAX TEMP:  27;

GRAND RAPIDS   CLEAR     20  10  65 S10       30.26F
6HR MIN TEMP:  17; 6HR MAX TEMP:  30;

KALAMAZOO      CLEAR     23  14  68 S5        30.28F
6HR MIN TEMP:  21; 6HR MAX TEMP:  33;

MARSHALL         N/A     19  13  78 CALM      30.27F
MUSKEGON       CLEAR     21  13  71 SE5       30.25F
6HR MIN TEMP:  20; 6HR MAX TEMP:  26;

$$
MIZ016>042-290700-
NORTHERN LOWER MICHIGAN

CITY           SKY/WX    TMP DP  RH WIND       PRES   REMARKS
ALPENA         CLEAR     19  14  81 S5        30.18F
6HR MIN TEMP:  17; 6HR MAX TEMP:  26;

BEAVER ISLAND  CLEAR     26  16  66 S13       30.13F
6HR MIN TEMP:  23; 6HR MAX TEMP:  26;

BELLAIRE       CLEAR     22   7  53 SW3       30.18F
6HR MIN TEMP:  19; 6HR MAX TEMP:  28;

CADILLAC       CLEAR     18   8  65 S5        30.16F
CHARLEVOIX     CLEAR     25   6  44 S9        30.18F
6HR MIN TEMP:  23; 6HR MAX TEMP:  26;

FRANKFORT      CLEAR     29  11  46 S7        30.18F
GAYLORD        CLEAR     20   5  52 SW6       30.13F
6HR MIN TEMP:  20; 6HR MAX TEMP:  27;

GRAYLING       CLEAR     23   3  42 SW5       30.17F
6HR MIN TEMP:  14; 6HR MAX TEMP:  28;

HARBOR SPRINGS CLEAR     21   7  54 CALM      30.15F
HOUGHTON LAKE  CLEAR     22   8  55 SW6       30.18F
6HR MIN TEMP:  18; 6HR MAX TEMP:  31;

MANISTEE       CLEAR     21   9  58 E3        30.21F
OSCODA         CLEAR     15  12  88 SW3       30.21F
PELLSTON       CLEAR     24   5  44 S5        30.15F
6HR MIN TEMP:  16; 6HR MAX TEMP:  25;

TRAVERSE CITY  CLEAR     26   5  40 VRB5      30.17F
6HR MIN TEMP:  25; 6HR MAX TEMP:  29;

$$
MIZ007>008-015-290700-
EASTERN UPPER MICHIGAN

CITY           SKY/WX    TMP DP  RH WIND       PRES   REMARKS
KINROSS        CLEAR     19  10  68 S6        30.11F
6HR MIN TEMP:  18; 6HR MAX TEMP:  27;

MACKINAC ISLAN CLEAR     22   6  49 S8        30.12F
6HR MIN TEMP:  21; 6HR MAX TEMP:  23;

NEWBERRY       CLEAR     22  20  91 S10G21    30.07F
S. S. MARIE    PTCLDY    16  11  80 E5        30.12F
6HR MIN TEMP:  15; 6HR MAX TEMP:  26;

$$
MIZ004>006-011>014-085-290700-
CENTRAL UPPER MICHIGAN

CITY           SKY/WX    TMP DP  RH WIND       PRES   REMARKS
MANISTIQUE     CLEAR     30  27  86 SW14G24   30.09F
6HR MIN TEMP:  27; 6HR MAX TEMP:  30;

ESCANABA       CLEAR     28  21  74 SW13G22   30.08F
6HR MIN TEMP:  28; 6HR MAX TEMP:  30;

MENOMINEE      CLEAR     28  19  69 SW13G18   30.11F
6HR MIN TEMP:  28; 6HR MAX TEMP:  34;

SAWYER-GWINN   CLEAR     26  16  66 S13       29.99F
6HR MIN TEMP:  25; 6HR MAX TEMP:  32;

$$
MIZ001>003-009>011-084-290700-
WESTERN UPPER MICHIGAN

CITY           SKY/WX    TMP DP  RH WIND       PRES   REMARKS
IRON MOUNTAIN  CLEAR     29  13  51 S9        30.01F
6HR MIN TEMP:  28; 6HR MAX TEMP:  36;

HOUGHTON       PTCLDY    29  11  47 SW7       29.90F
6HR MIN TEMP:  24; 6HR MAX TEMP:  29;

COPPER HARBOR    N/A     31  14  49 W8        29.91F
6HR MIN TEMP:  25; 6HR MAX TEMP:  31;

IRONWOOD       MOCLDY    34  12  40 S17G23    29.87F
6HR MIN TEMP:  34; 6HR MAX TEMP:  39;

$$

ABBREVIATIONS USED IN REMARKS
   TC - TEMPERATURE IN CELSIUS
  WCI - WIND CHILL INDEX
   HX - HEAT INDEX
  VSB - VISIBILITY




USA.gov is the U.S. government's official web portal to all federal, state and local government web resources and services.